User: anonymous   Login
Location: Unspecified
(0.0000°N, 0.0000°E)
Time: 22:21:40
(UTC+00:00)
Language:

Shinsei - Orbit

View from above orbital plane
View from above orbital plane
View from above satellite
View from above satellite

Ground track
Ground track

The orbit data is extracted from the following two-line orbital elements,

1 05485U 71080A   17327.19514934  .00000023  00000-0 -19679-4 0  9996
2 05485  32.0587 316.0371 0640354 239.6973 113.8760 12.74123362150262
Epoch (UTC): 23 November 2017 04:41:00
Eccentricity: 0.0640354
inclination: 32.0587°
perigee height: 869 km
apogee height: 1861 km
right ascension of ascending node: 316.0371°
argument of perigee: 239.6973°
revolutions per day: 12.74123362
mean anomaly at epoch: 113.8760°
orbit number at epoch: 15026

The dashed part of the orbit path shows where the satellite is in the earth's shadow,  

DLR